Zurück zum Katalog

YZ-1 R/B

AktivHEO
NORAD 41929·ROCKET BODY·🇨🇳 China

Gestartet Mar 30, 2015 von Xichang Satellite Launch Center

Loading…

Nächste Überflüge (nächste 24 Stunden)

TLE

AktuellSource: Space-Track

Epoche: Sep 17, 2026, 02:35 UTC

1 41929U 15019C   26260.10783736 -.00000615  00000-0  00000-0 0  9995
2 41929  17.2225  81.4640 7012978 320.4724 358.4276  0.27923502 11024

Verfolge YZ-1 R/B in Echtzeit mit AllMySat

Download on the App Store